Regional Weather Roundup
Issued by NWS Cleveland, OH

Home | Current Version | Previous Version | Text Only | Print | Product List | Glossary Off
Versions: 1 2 3 4 5 6 7 8 9 10 11 12 13 14 15 16 17 18 19 20 21 22 23 24 25 26 27 28 29 30 31 32 33 34 35 36 37 38 39 40 41 42 43 44 45 46 47 48 49 50

000
ASUS41 KCLE 190910
RWRCLE
OHIO REGIONAL WEATHER ROUNDUP
NATIONAL WEATHER SERVICE WILMINGTON, OH
500 AM EDT FRI SEP 19 2014

NOTE: "FAIR" INDICATES FEW OR NO CLOUDS BELOW 12,000 FEET WITH NO
SIGNIFICANT WEATHER AND/OR OBSTRUCTIONS TO VISIBILITY.

OHZ001>008-015>018-024>027-034-035-043-044-191000-
   NORTHWEST OHIO

CITY           SKY/WX    TMP DP  RH WIND       PRES   REMARKS
DEFIANCE       PTCLDY    49  47  93 NE3       30.21S FOG
FINDLAY        CLEAR     52  49  89 E7        30.19F
TOLEDO EXPRESS CLEAR     47  46  97 N3        30.21S
TOLEDO METCALF CLEAR     50  46  86 NE3       30.22F
LIMA           CLEAR     48  46  93 E5        30.19F FOG
$$

OHZ009>014-019>023-028>033-038-089-191000-
   NORTHEAST OHIO

CITY           SKY/WX    TMP DP  RH WIND       PRES   REMARKS
CLE-HOPKINS    PTCLDY    48  47  96 SE6       30.23S
CLE-LAKEFRONT  PTCLDY    54  49  83 SE6       30.20S
CUY CO. ARPT   NOT AVBL
LORAIN-ELYRIA  PTCLDY    48  44  86 CALM      30.22S FOG
ASHTABULA      CLEAR     43  42  97 CALM      30.24R FOG
AKRON-CANTON   CLEAR     47  44  90 NE3       30.21S FOG
WOOSTER        FOG       42  40  92 CALM      30.22R VSB 1/4
MANSFIELD      CLEAR     49  48  97 E7        30.21S
YOUNGSTOWN     PTCLDY    45  44  97 E3        30.21S FOG
$$

OHZ042-051>053-060>062-070>072-077>081-191000-
  SOUTHWEST OHIO

CITY           SKY/WX    TMP DP  RH WIND       PRES   REMARKS
CINC-COVINGTON CLEAR     56  48  74 E8        30.15S
CINC-LUNKEN    CLEAR     46  45  96 CALM      30.17S FOG
HAMILTON       CLEAR     47  46  97 CALM      30.18R
DAYTON         CLEAR     50  48  93 CALM      30.19R
WRIGHT-PAT AFB CLEAR     52  48  87 CALM      30.18R
DAYTON GENERAL CLEAR     50  48  93 E8        30.16S
WILMINGTON     CLEAR     49  46  90 NE7       30.17S
$$

OHZ036-037-039>041-045>050-054>059-063>069-073>076-082>088-191000-
  CENTRAL AND SOUTHEAST OHIO

CITY           SKY/WX    TMP DP  RH WIND       PRES   REMARKS
COLUMBUS       CLEAR     55  47  74 E8        30.18R
OSU AIRPORT    CLEAR     49  46  90 NE5       30.19R
BOLTON FIELD   CLEAR     49  47  95 N3        30.19S
RICKENBACK AFB CLEAR     48  46  93 NE5       30.18R
NEWARK         CLEAR     49  46  90 CALM      30.19S
MARION         CLEAR     44  43  96 N3        30.20S FOG
LANCASTER      CLEAR     46  44  93 CALM      30.19S FOG
ZANESVILLE     CLEAR     50  47  89 CALM      30.19R
NEW PHILLY     CLEAR     46  45  96 CALM      30.21S FOG
$$


USA.gov is the U.S. government's official web portal to all federal, state and local government web resources and services.